FW6831 Weather Reports


Display with metric or nautical units.
time (UTC)temp
F
wind
direction
speed
MPH
gust
MPH
rain 1hr
in
rain 24hr
in
rain mn
in
humidity
%
barometer
mb
20260508085046 56 316 0.0 2.0 0.00 0.00 0.00 67 1018.8
20260508084553 56 320 1.0 2.0 0.00 0.00 0.00 68 1018.8
20260508084043 56 315 1.0 2.0 0.00 0.00 0.00 65 1018.7
20260508083543 56 319 1.0 2.0 0.00 0.00 0.00 69 1018.7
20260508083130 56 324 0.0 2.0 0.00 0.00 0.00 69 1018.7
20260508082542 56 321 1.0 2.0 0.00 0.00 0.00 69 1018.6
20260508082045 56 321 1.0 1.0 0.00 0.00 0.00 71 1018.5
20260508081555 57 316 0.0 2.0 0.00 0.00 0.00 72 1018.4
20260508081046 57 317 1.0 2.0 0.00 0.00 0.00 72 1018.4
20260508080545 57 305 1.0 3.0 0.00 0.00 0.00 73 1018.0
20260508080100 57 320 1.0 3.0 0.00 0.00 0.00 68 1018.0
20260508075543 58 323 0.0 2.0 0.00 0.00 0.00 68 1017.9
20260508075042 58 0 0.0 0.0 0.00 0.00 0.00 69 1017.9
20260508074548 58 0 0.0 0.0 0.00 0.00 0.00 69 1017.7
20260508074044 59 0 0.0 0.0 0.00 0.00 0.00 68 1017.7
20260508073542 59 0 0.0 0.0 0.00 0.00 0.00 62 1017.8
20260508073057 59 0 0.0 0.0 0.00 0.00 0.00 63 1017.7
20260508072544 60 0 0.0 0.0 0.00 0.00 0.00 64 1017.8
20260508072042 60 0 0.0 0.0 0.00 0.00 0.00 63 1017.7
20260508071555 61 0 0.0 0.0 0.00 0.00 0.00 63 1017.7
20260508071042 61 0 0.0 0.0 0.00 0.00 0.00 62 1017.6
20260508070542 62 0 0.0 0.0 0.00 0.00 0.00 61 1017.5
20260508070048 62 0 0.0 0.0 0.00 0.00 0.00 63 1017.6
20260508065544 63 0 0.0 0.0 0.00 0.00 0.00 59 1017.5
20260508065044 63 0 0.0 0.0 0.00 0.00 0.00 59 1017.4
20260508064607 64 0 0.0 0.0 0.00 0.00 0.00 59 1017.4
20260508064043 64 0 0.0 0.0 0.00 0.00 0.00 56 1017.4
20260508063543 65 0 0.0 0.0 0.00 0.00 0.00 54 1017.3
20260508063048 65 0 0.0 0.0 0.00 0.00 0.00 51 1017.2
20260508062542 65 0 0.0 0.0 0.00 0.00 0.00 49 1017.2
20260508062042 66 0 0.0 0.0 0.00 0.00 0.00 46 1017.3
20260508061549 66 0 0.0 0.0 0.00 0.00 0.00 46 1017.2
20260508061042 66 0 0.0 0.0 0.00 0.00 0.00 46 1017.2
20260508060546 67 0 0.0 0.0 0.00 0.00 0.00 44 1017.2
20260508060047 67 0 0.0 0.0 0.00 0.00 0.00 44 1017.2
20260508055544 67 0 0.0 0.0 0.00 0.00 0.00 42 1017.3
20260508055044 67 0 0.0 0.0 0.00 0.00 0.00 42 1017.3
20260508054554 68 0 0.0 2.0 0.00 0.00 0.00 39 1017.3
20260508054048 68 0 0.0 2.0 0.00 0.00 0.00 38 1017.3
20260508053545 68 0 0.0 0.0 0.00 0.00 0.00 34 1017.3
20260508053049 69 0 0.0 1.0 0.00 0.00 0.00 35 1017.5
20260508052545 69 0 0.0 1.0 0.00 0.00 0.00 37 1017.5
20260508052047 69 0 0.0 4.0 0.00 0.00 0.00 37 1017.4
20260508051550 70 0 0.0 4.0 0.00 0.00 0.00 35 1017.5
20260508051045 70 0 1.0 4.0 0.00 0.00 0.00 31 1017.5
20260508050545 70 0 0.0 6.0 0.00 0.00 0.00 32 1017.4
20260508050058 70 221 1.0 7.0 0.00 0.00 0.00 31 1017.5
20260508045546 71 0 0.0 7.0 0.00 0.00 0.00 32 1017.5
20260508045047 71 341 2.0 7.0 0.00 0.00 0.00 29 1017.5
20260508044556 72 305 0.0 2.0 0.00 0.00 0.00 30 1017.6
20260508044043 72 0 0.0 3.0 0.00 0.00 0.00 30 1017.7
20260508043544 71 0 0.0 4.0 0.00 0.00 0.00 31 1017.7
20260508043055 72 1 1.0 4.0 0.00 0.00 0.00 28 1017.7
20260508042545 72 0 0.0 3.0 0.00 0.00 0.00 31 1017.7
20260508042047 71 268 1.0 3.0 0.00 0.00 0.00 31 1017.7
20260508041603 71 259 1.0 5.0 0.00 0.00 0.00 30 1017.8
20260508041047 71 0 1.0 5.0 0.00 0.00 0.00 30 1017.8
20260508040544 70 266 0.0 4.0 0.00 0.00 0.00 28 1017.8
20260508040110 70 188 1.0 6.0 0.00 0.00 0.00 29 1017.9
20260508035544 70 0 0.0 6.0 0.00 0.00 0.00 32 1018.0
20260508035044 71 223 0.0 3.0 0.00 0.00 0.00 30 1018.0
20260508034555 70 276 1.0 6.0 0.00 0.00 0.00 32 1018.0
20260508034044 70 0 2.0 6.0 0.00 0.00 0.00 32 1018.1
20260508033543 70 0 1.0 6.0 0.00 0.00 0.00 33 1018.1
20260508033053 69 226 3.0 6.0 0.00 0.00 0.00 33 1018.2
20260508032544 70 282 1.0 6.0 0.00 0.00 0.00 33 1018.3
20260508032046 70 339 2.0 6.0 0.00 0.00 0.00 33 1018.3
20260508031551 71 252 0.0 6.0 0.00 0.00 0.00 34 1018.4
20260508031044 70 0 0.0 6.0 0.00 0.00 0.00 35 1018.4
20260508030544 69 257 1.0 6.0 0.00 0.00 0.00 33 1018.4
20260508030109 69 309 0.0 5.0 0.00 0.00 0.00 36 1018.5
20260508025545 69 245 2.0 5.0 0.00 0.00 0.00 35 1018.4
20260508025044 69 269 1.0 5.0 0.00 0.00 0.00 37 1018.4
20260508024558 69 285 1.0 7.0 0.00 0.00 0.00 36 1018.6
20260508024044 69 240 0.0 7.0 0.00 0.00 0.00 35 1018.7
20260508023544 68 235 2.0 5.0 0.00 0.00 0.00 35 1018.8
20260508023049 68 188 2.0 5.0 0.00 0.00 0.00 34 1018.7
20260508022544 68 24 2.0 5.0 0.00 0.00 0.00 34 1018.8
20260508022044 68 56 2.0 7.0 0.00 0.00 0.00 33 1018.8
20260508021549 67 1 2.0 7.0 0.00 0.00 0.00 35 1018.9
20260508021043 68 187 1.0 7.0 0.00 0.00 0.00 35 1019.1
20260508020544 68 245 1.0 5.0 0.00 0.00 0.00 35 1019.3
20260508020050 68 169 0.0 4.0 0.00 0.00 0.00 35 1019.5
20260508015544 68 290 0.0 7.0 0.00 0.00 0.00 32 1019.5
20260508015044 68 0 1.0 7.0 0.00 0.00 0.00 33 1019.5
20260508014553 67 309 2.0 6.0 0.00 0.00 0.00 33 1019.7
20260508014045 67 340 1.0 4.0 0.00 0.00 0.00 36 1019.9
20260508013544 67 242 1.0 3.0 0.00 0.00 0.00 36 1020.1
20260508013048 66 297 1.0 3.0 0.00 0.00 0.00 37 1020.1
20260508012544 66 222 0.0 7.0 0.00 0.00 0.00 36 1020.0
20260508012044 65 304 1.0 7.0 0.00 0.00 0.00 38 1020.2
20260508011600 66 323 1.0 5.0 0.00 0.00 0.00 37 1020.2
20260508011045 66 305 1.0 5.0 0.00 0.00 0.00 39 1020.4
20260508010544 66 332 1.0 5.0 0.00 0.00 0.00 36 1020.4
20260508010059 66 245 1.0 3.0 0.00 0.00 0.00 36 1020.4
20260508005544 66 306 0.0 4.0 0.00 0.00 0.00 38 1020.5
20260508005044 65 296 1.0 4.0 0.00 0.00 0.00 39 1020.7
20260508004559 64 224 1.0 5.0 0.00 0.00 0.00 37 1020.6
20260508004044 65 274 0.0 5.0 0.00 0.00 0.00 41 1020.9
20260508003543 64 242 0.0 5.0 0.00 0.00 0.00 39 1020.9
20260508003108 64 174 2.0 5.0 0.00 0.00 0.00 36 1020.9
20260508002544 64 0 1.0 5.0 0.00 0.00 0.00 39 1020.9
20260508002044 63 312 2.0 6.0 0.00 0.00 0.00 38 1021.0
20260508001552 63 360 1.0 6.0 0.00 0.00 0.00 37 1021.1
20260508001044 62 268 1.0 6.0 0.00 0.00 0.00 37 1021.1
20260508000548 62 263 2.0 5.0 0.00 0.00 0.00 37 1021.1
20260508000050 62 188 2.0 5.0 0.00 0.00 0.00 38 1021.3
20260507235544 62 185 2.0 6.0 0.00 0.00 0.00 36 1021.3
20260507235044 62 207 1.0 6.0 0.00 0.00 0.00 38 1021.3
20260507234548 62 201 2.0 5.0 0.00 0.00 0.00 37 1021.4
20260507234043 62 261 2.0 6.0 0.00 0.00 0.00 38 1021.4
20260507233544 61 266 1.0 6.0 0.00 0.00 0.00 40 1021.4
20260507233052 61 158 3.0 7.0 0.00 0.00 0.00 38 1021.5
20260507232544 61 254 1.0 10.0 0.00 0.00 0.00 41 1021.6
20260507232044 61 215 4.0 10.0 0.00 0.00 0.00 39 1021.4
20260507231605 62 0 0.0 2.0 0.00 0.00 0.00 42 1021.3
20260507231044 61 262 0.0 5.0 0.00 0.00 0.00 47 1021.3
20260507230544 61 0 1.0 5.0 0.00 0.00 0.00 48 1021.4
20260507230056 61 0 0.0 0.0 0.00 0.00 0.00 49 1021.3
20260507225544 61 0 0.0 0.0 0.00 0.00 0.00 52 1021.1
20260507225044 60 0 0.0 0.0 0.00 0.00 0.00 51 1021.3
20260507224557 59 0 0.0 0.0 0.00 0.00 0.00 53 1021.4
20260507224044 59 0 0.0 0.0 0.00 0.00 0.00 55 1021.4
20260507223544 59 0 0.0 0.0 0.00 0.00 0.00 54 1021.4
20260507223049 58 0 0.0 0.0 0.00 0.00 0.00 63 1021.5
20260507222546 58 0 0.0 0.0 0.00 0.00 0.00 62 1021.5
20260507222043 57 0 0.0 0.0 0.00 0.00 0.00 64 1021.4
20260507221550 57 0 0.0 0.0 0.00 0.00 0.00 66 1021.1
20260507221044 56 0 0.0 0.0 0.00 0.00 0.00 66 1021.0
20260507220545 54 0 0.0 0.0 0.00 0.00 0.00 68 1020.9
20260507220048 54 0 0.0 0.0 0.00 0.00 0.00 66 1020.9
20260507215547 54 0 0.0 0.0 0.00 0.00 0.00 66 1021.0
20260507215045 53 0 0.0 0.0 0.00 0.00 0.00 69 1020.9
20260507214553 53 0 0.0 0.0 0.00 0.00 0.00 68 1020.9
20260507214044 52 0 0.0 0.0 0.00 0.00 0.00 69 1020.9
20260507213544 52 0 0.0 0.0 0.00 0.00 0.00 71 1020.9
20260507213104 51 0 0.0 0.0 0.00 0.00 0.00 71 1020.9
20260507212546 50 0 0.0 0.0 0.00 0.00 0.00 75 1020.9
20260507212044 50 0 0.0 0.0 0.00 0.00 0.00 75 1020.8
20260507211549 49 0 0.0 0.0 0.00 0.00 0.00 76 1020.9
20260507211043 49 0 0.0 0.0 0.00 0.00 0.00 76 1020.8
20260507210544 48 0 0.0 0.0 0.00 0.00 0.00 79 1020.7
20260507210054 48 0 0.0 0.0 0.00 0.00 0.00 76 1020.6
20260507205546 48 0 0.0 0.0 0.00 0.00 0.00 74 1020.6
20260507205043 48 0 0.0 0.0 0.00 0.00 0.00 76 1020.5
20260507204601 47 0 0.0 0.0 0.00 0.00 0.00 73 1020.5
20260507204043 47 0 0.0 0.0 0.00 0.00 0.00 76 1020.3
20260507203547 47 0 0.0 0.0 0.00 0.00 0.00 78 1020.4
20260507203050 47 0 0.0 0.0 0.00 0.00 0.00 77 1020.3
20260507202544 47 0 0.0 0.0 0.00 0.00 0.00 79 1020.4
20260507202044 47 0 0.0 0.0 0.00 0.00 0.00 78 1020.4
20260507201553 47 0 0.0 0.0 0.00 0.00 0.00 78 1020.3
20260507201047 47 0 0.0 0.0 0.00 0.00 0.00 79 1020.1
20260507200546 47 0 0.0 0.0 0.00 0.00 0.00 78 1020.1
20260507200049 47 0 0.0 0.0 0.00 0.00 0.00 77 1020.1
20260507195545 48 0 0.0 0.0 0.00 0.00 0.00 78 1020.0
20260507195047 48 0 0.0 0.0 0.00 0.00 0.00 78 1019.9
20260507194552 48 0 0.0 0.0 0.00 0.00 0.00 78 1019.8
20260507194043 48 0 0.0 0.0 0.00 0.00 0.00 77 1019.8
20260507193543 48 0 0.0 0.0 0.00 0.00 0.00 76 1019.7
20260507193108 49 0 0.0 0.0 0.00 0.00 0.00 76 1019.8
20260507192543 49 0 0.0 0.0 0.00 0.00 0.00 74 1019.6
20260507192044 49 0 0.0 0.0 0.00 0.00 0.00 75 1019.7
20260507191554 49 0 0.0 0.0 0.00 0.00 0.00 76 1019.6
20260507191043 49 0 0.0 0.0 0.00 0.00 0.00 76 1019.6
20260507190543 50 0 0.0 0.0 0.00 0.00 0.00 75 1019.4
20260507185544 50 0 0.0 0.0 0.00 0.00 0.00 73 1019.3
20260507185044 50 0 0.0 0.0 0.00 0.00 0.00 72 1019.2
20260507184553 50 0 0.0 0.0 0.00 0.00 0.00 71 1019.1
20260507184044 51 0 0.0 0.0 0.00 0.00 0.00 71 1019.1
20260507183543 50 0 0.0 0.0 0.00 0.00 0.00 70 1018.9
20260507183100 50 0 0.0 0.0 0.00 0.00 0.00 72 1018.9
20260507182546 50 0 0.0 0.0 0.00 0.00 0.00 72 1018.9
20260507182044 50 0 0.0 0.0 0.00 0.00 0.00 72 1019.0
20260507181550 50 0 0.0 0.0 0.00 0.00 0.00 74 1019.0
20260507181044 51 0 0.0 0.0 0.00 0.00 0.00 75 1018.8
20260507180544 51 0 0.0 0.0 0.00 0.00 0.00 73 1019.1
20260507180052 51 0 0.0 0.0 0.00 0.00 0.00 74 1018.9
20260507175543 51 0 0.0 0.0 0.00 0.00 0.00 73 1019.0
20260507175044 52 0 0.0 0.0 0.00 0.00 0.00 72 1018.8
20260507174552 52 0 0.0 0.0 0.00 0.00 0.00 71 1018.8
20260507174046 52 0 0.0 0.0 0.00 0.00 0.00 71 1018.8
20260507173544 52 0 0.0 0.0 0.00 0.00 0.00 72 1018.7
20260507173054 52 0 0.0 0.0 0.00 0.00 0.00 70 1018.6
20260507172548 53 0 0.0 0.0 0.00 0.00 0.00 71 1018.6
20260507172045 53 0 0.0 0.0 0.00 0.00 0.00 70 1018.5
20260507171556 53 0 0.0 0.0 0.00 0.00 0.00 70 1018.5
20260507171044 53 0 0.0 0.0 0.00 0.00 0.00 71 1018.3
20260507170544 53 0 0.0 0.0 0.00 0.00 0.00 70 1018.4
20260507170051 53 0 0.0 0.0 0.00 0.00 0.00 72 1018.3
20260507165548 54 0 0.0 1.0 0.00 0.00 0.00 73 1018.2
20260507165045 54 0 0.0 1.0 0.00 0.00 0.00 71 1018.3
20260507164556 54 0 0.0 1.0 0.00 0.00 0.00 72 1018.3
20260507164044 54 0 0.0 1.0 0.00 0.00 0.00 71 1018.5
20260507163547 54 0 0.0 2.0 0.00 0.00 0.00 68 1018.4
20260507163053 55 0 0.0 4.0 0.00 0.00 0.00 68 1018.5
20260507162541 55 0 0.0 4.0 0.00 0.00 0.00 68 1018.4
20260507162049 55 358 0.0 4.0 0.00 0.00 0.00 68 1018.3
20260507161549 56 64 0.0 2.0 0.00 0.00 0.00 69 1018.4
20260507161044 56 63 0.0 2.0 0.00 0.00 0.00 67 1018.3
20260507160547 56 0 0.0 6.0 0.00 0.00 0.00 68 1018.2
20260507160059 56 324 0.0 6.0 0.00 0.00 0.00 67 1018.3
20260507155543 56 267 0.0 6.0 0.00 0.00 0.00 68 1018.3
20260507155047 57 0 1.0 6.0 0.00 0.00 0.00 68 1018.2
20260507154549 56 310 1.0 5.0 0.00 0.00 0.00 67 1018.2
20260507154044 56 219 0.0 6.0 0.00 0.00 0.00 68 1018.1
20260507153547 57 0 0.0 6.0 0.00 0.00 0.00 68 1018.1
20260507153054 57 221 1.0 6.0 0.00 0.00 0.00 67 1018.1
20260507152543 57 234 0.0 7.0 0.00 0.00 0.00 67 1018.1
20260507152042 58 311 0.0 7.0 0.00 0.00 0.00 66 1018.1
20260507151554 58 316 1.0 6.0 0.00 0.00 0.00 66 1017.9
20260507151048 58 0 2.0 6.0 0.00 0.00 0.00 66 1017.9
20260507150543 58 356 0.0 5.0 0.00 0.00 0.00 66 1018.2
20260507150052 58 0 1.0 6.0 0.00 0.00 0.00 66 1018.0
20260507145546 58 323 1.0 6.0 0.00 0.00 0.00 65 1018.0
20260507145043 58 0 0.0 5.0 0.00 0.00 0.00 66 1018.2
20260507144558 58 249 2.0 5.0 0.00 0.00 0.00 66 1018.1
20260507144044 58 167 1.0 7.0 0.00 0.00 0.00 67 1018.4
20260507143543 57 0 1.0 7.0 0.00 0.00 0.00 68 1018.4
20260507143052 57 0 0.0 2.0 0.00 0.00 0.00 70 1018.2
20260507142543 58 302 1.0 3.0 0.00 0.00 0.00 68 1018.2
20260507142043 58 0 1.0 3.0 0.00 0.00 0.00 68 1018.6
20260507141553 58 0 0.0 4.0 0.00 0.00 0.00 69 1018.2
20260507141043 59 300 1.0 4.0 0.00 0.00 0.00 67 1018.2
20260507140543 58 0 0.0 0.0 0.00 0.00 0.00 66 1018.5
20260507140111 59 0 0.0 0.0 0.00 0.00 0.00 66 1018.2
20260507135543 59 0 0.0 0.0 0.00 0.00 0.00 65 1018.5
20260507135043 59 0 0.0 0.0 0.00 0.00 0.00 64 1018.6
20260507134552 60 0 0.0 0.0 0.00 0.00 0.00 63 1018.3
20260507134043 60 0 0.0 2.0 0.00 0.00 0.00 62 1018.5
20260507133544 60 0 0.0 2.0 0.00 0.00 0.00 62 1018.2
20260507133052 61 302 1.0 3.0 0.00 0.00 0.00 62 1018.4
20260507132543 61 260 0.0 3.0 0.00 0.00 0.00 60 1018.7
20260507132043 61 0 0.0 7.0 0.00 0.00 0.00 60 1018.6
20260507131604 62 162 0.0 8.0 0.00 0.00 0.00 59 1018.7
20260507131047 62 271 1.0 8.0 0.00 0.00 0.00 59 1018.4
20260507130543 62 271 1.0 3.0 0.00 0.00 0.00 60 1018.5
20260507130112 62 274 1.0 4.0 0.00 0.00 0.00 59 1018.6
20260507125543 62 275 1.0 6.0 0.00 0.00 0.00 60 1018.7
20260507125043 62 11 2.0 6.0 0.00 0.00 0.00 61 1018.5
20260507124605 62 236 1.0 4.0 0.00 0.00 0.00 59 1018.4
20260507124045 62 323 1.0 4.0 0.00 0.00 0.00 58 1018.4
20260507123545 62 110 1.0 3.0 0.00 0.00 0.00 58 1018.4
20260507123059 62 103 1.0 3.0 0.00 0.00 0.00 60 1018.2
20260507122542 63 312 0.0 5.0 0.00 0.00 0.00 58 1018.2
20260507122045 63 181 1.0 5.0 0.00 0.00 0.00 56 1018.2
20260507121554 63 323 1.0 9.0 0.00 0.00 0.00 56 1018.1
20260507121044 64 326 1.0 9.0 0.00 0.00 0.00 56 1018.2
20260507120545 64 328 1.0 8.0 0.00 0.00 0.00 55 1018.2
20260507120056 64 143 1.0 8.0 0.00 0.00 0.00 55 1018.0
20260507115543 64 167 1.0 8.0 0.00 0.00 0.00 54 1017.7
20260507115043 64 251 2.0 9.0 0.00 0.00 0.00 55 1017.4
20260507114552 64 290 2.0 9.0 0.00 0.00 0.00 54 1017.2
20260507114046 65 318 2.0 9.0 0.00 0.00 0.00 53 1017.2
20260507113543 65 307 1.0 12.0 0.00 0.00 0.00 53 1017.5
20260507113051 65 256 2.0 12.0 0.00 0.00 0.00 52 1017.7
20260507112545 65 358 2.0 7.0 0.00 0.00 0.00 52 1017.6
20260507112043 65 242 0.0 7.0 0.00 0.00 0.00 52 1017.5
20260507111552 65 326 2.0 6.0 0.00 0.00 0.00 51 1017.5
20260507111042 65 355 2.0 5.0 0.00 0.00 0.00 52 1017.6
20260507110544 65 0 2.0 6.0 0.00 0.00 0.00 52 1017.5
20260507110052 66 264 1.0 6.0 0.00 0.00 0.00 51 1017.5
20260507105543 66 37 1.0 8.0 0.00 0.00 0.00 51 1017.4
20260507105044 66 236 1.0 8.0 0.00 0.00 0.00 50 1017.3
20260507104554 66 280 2.0 8.0 0.00 0.00 0.00 51 1017.4
20260507104042 66 252 2.0 8.0 0.00 0.00 0.00 52 1017.3
20260507103544 66 0 1.0 8.0 0.00 0.00 0.00 51 1017.2
20260507103053 66 293 2.0 10.0 0.00 0.00 0.00 52 1016.9
20260507102543 66 9 2.0 10.0 0.00 0.00 0.00 53 1017.0
20260507102044 66 40 3.0 10.0 0.00 0.00 0.00 52 1016.9
20260507101552 67 326 1.0 7.0 0.00 0.00 0.00 52 1016.8
20260507101045 67 271 1.0 7.0 0.00 0.00 0.00 51 1016.8
20260507100543 67 67 2.0 7.0 0.00 0.00 0.00 50 1016.9
20260507100057 67 291 2.0 7.0 0.00 0.00 0.00 50 1017.1
20260507095543 67 248 2.0 7.0 0.00 0.00 0.00 52 1017.1
20260507095042 67 319 1.0 5.0 0.00 0.00 0.00 50 1017.0
20260507094554 67 270 1.0 5.0 0.00 0.00 0.00 51 1016.8
20260507094042 67 244 0.0 8.0 0.00 0.00 0.00 52 1016.7
20260507093542 67 309 2.0 8.0 0.00 0.00 0.00 51 1016.6
20260507093052 68 319 1.0 10.0 0.00 0.00 0.00 51 1016.7
20260507092544 68 311 2.0 10.0 0.00 0.00 0.00 49 1016.9
20260507092046 68 275 2.0 7.0 0.00 0.00 0.00 49 1016.9
20260507091554 68 310 3.0 7.0 0.00 0.00 0.00 50 1016.8
20260507091047 68 0 0.0 7.0 0.00 0.00 0.00 51 1016.6
20260507090543 68 309 1.0 7.0 0.00 0.00 0.00 52 1016.5
20260507090056 68 281 1.0 5.0 0.00 0.00 0.00 51 1016.3
20260507085543 68 0 0.0 5.0 0.00 0.00 0.00 50 1016.3